This is the latest recevied weather packets stored in our database for station/object DM4WH-13. If no packets are shown the sender has not sent any weather packets the latest 10 day(s).
| Time | Temp. | Humidity | Pressure | Rain* | Wind** | Luminosity | Snow |
|---|---|---|---|---|---|---|---|
| 1777131908 | 17.22° C | 34% | 1015.1 hPa | 0 mm | 0.89 m/s, 334° | - | - |
| 1777131621 | 17.78° C | 34% | 1015.2 hPa | 0 mm | 0.89 m/s, 342° | - | - |
| 1777131309 | 17.22° C | 34% | 1015.2 hPa | 0 mm | 0.45 m/s, 316° | - | - |
| 1777131022 | 17.22° C | 33% | 1015.3 hPa | 0 mm | 1.34 m/s, 281° | - | - |
| 1777130709 | 17.22° C | 33% | 1015.3 hPa | 0 mm | 0.45 m/s, 294° | - | - |
| 1777130421 | 17.22° C | 34% | 1015.4 hPa | 0 mm | 0.45 m/s, 301° | - | - |
| 1777130109 | 17.22° C | 33% | 1015.4 hPa | 0 mm | 1.34 m/s, 317° | - | - |
| 1777129822 | 17.78° C | 32% | 1015.4 hPa | 0 mm | 0.89 m/s, 91° | - | - |
| 1777129508 | 17.22° C | 36% | 1015.4 hPa | 0 mm | 0.45 m/s, 282° | - | - |
| 1777129233 | 17.22° C | 35% | 1015.4 hPa | 0 mm | 0.45 m/s, 266° | - | - |
| 1777128920 | 17.22° C | 35% | 1015.4 hPa | 0 mm | 0.89 m/s, 294° | - | - |
| 1777128607 | 17.22° C | 37% | 1015.5 hPa | 0 mm | 0.89 m/s, 73° | - | - |
| 1777128320 | 17.22° C | 36% | 1015.5 hPa | 0 mm | 0.89 m/s, 301° | - | - |
| 1777128008 | 17.22° C | 37% | 1015.5 hPa | 0 mm | 0.89 m/s, 325° | - | - |
| 1777127720 | 17.22° C | 36% | 1015.6 hPa | 0 mm | 0.45 m/s, 240° | - | - |
| 1777127408 | 17.22° C | 39% | 1015.6 hPa | 0 mm | 0.45 m/s, 318° | - | - |
| 1777127120 | 16.11° C | 37% | 1015.6 hPa | 0 mm | 0.89 m/s, 282° | - | - |
| 1777126808 | 17.22° C | 36% | 1015.7 hPa | 0 mm | 1.34 m/s, 287° | - | - |
| 1777126520 | 17.22° C | 36% | 1015.8 hPa | 0 mm | 1.34 m/s, 322° | - | - |
| 1777126208 | 17.22° C | 34% | 1015.7 hPa | 0 mm | 0.89 m/s, 291° | - | - |
| 1777125920 | 17.22° C | 36% | 1015.7 hPa | 0 mm | 0.89 m/s, 25° | - | - |
| 1777125607 | 17.22° C | 36% | 1015.7 hPa | 0 mm | 0.89 m/s, 335° | - | - |
| 1777125320 | 17.22° C | 34% | 1015.8 hPa | 0 mm | 1.34 m/s, 297° | - | - |
| 1777125007 | 17.22° C | 37% | 1015.8 hPa | 0 mm | 1.34 m/s, 297° | - | - |
| 1777124720 | 16.11° C | 36% | 1015.8 hPa | 0 mm | 0.89 m/s, 306° | - | - |
* Rain latest hour (hover to see other rain measurements)
** Current wind speed in m/s (hover to see current wind gust speed)